Location: Seattle
(47.6064°N, 122.3308°W)
Time: 14:10:51
(UTC-08:00)

Vanguard 2 Rocket - Visible Passes

Search period start: 25 November 2020 00:00
Search period end: 05 December 2020 00:00
Orbit: 554 x 3326 km, 32.9° (Epoch: 25 November)

Date Brightness Start Highest point End Pass type
(mag) Time Alt. Az. Time Alt. Az. Time Alt. Az.
25 Nov 11.4 06:22:36 10° S 06:34:34 19° SE 06:45:28 10° ESE visible
26 Nov 11.5 05:26:05 10° SSE 05:33:50 13° SE 05:41:23 10° ESE visible
27 Nov 11.2 06:32:39 10° SSW 06:47:27 27° SE 07:00:52 10° E visible
28 Nov 11.2 05:34:08 10° S 05:46:31 21° SE 05:58:34 10° E visible
29 Nov 11.3 04:37:43 10° SSE 04:45:52 14° SE 04:54:10 10° ESE visible
29 Nov 11.1 06:43:56 10° SSW 07:00:21 34° SSE 07:15:23 10° E visible
30 Nov 11.0 05:44:34 10° SSW 05:59:13 28° SE 06:13:44 10° E visible
01 Dec 11.0 04:46:22 10° S 04:58:22 21° SE 05:10:59 10° E visible
01 Dec 10.8 06:55:57 10° SW 07:13:19 40° SSE 07:29:26 10° E visible
02 Dec 11.1 03:50:14 10° SSE 03:57:54 14° SE 04:06:05 10° ESE visible
02 Dec 10.9 05:56:06 10° SSW 06:11:57 35° SSE 06:28:06 10° E visible
03 Dec 10.8 04:57:06 10° SSW 05:10:55 28° SE 05:25:59 10° E visible
04 Dec 10.8 03:59:13 10° S 04:10:16 21° SE 04:22:45 10° E visible
04 Dec 10.6 06:08:20 10° SW 06:24:49 41° SSE 06:42:04 10° E visible
